User: anonymous   Login
Location: Unspecified
(0.0000°N, 0.0000°E)
Time: 21:37:11
(UTC+00:00)
Language:

BUGSAT 1 - Orbit

View from above orbital plane
View from above orbital plane
View from above satellite
View from above satellite

Ground track
Ground track

The orbit data is extracted from the following two-line orbital elements,

1 40014U 14033E   18049.50208376  .00000676  00000-0  66958-4 0  9990
2 40014  97.9704 342.9236 0030354 227.2918 132.5745 14.94979054200003
Epoch (UTC): 18 February 2018 12:03:00
Eccentricity: 0.0030354
inclination: 97.9704°
perigee height: 561 km
apogee height: 603 km
right ascension of ascending node: 342.9236°
argument of perigee: 227.2918°
revolutions per day: 14.94979054
mean anomaly at epoch: 132.5745°
orbit number at epoch: 20000

The dashed part of the orbit path shows where the satellite is in the earth's shadow,  

DLR